Regional Weather Roundup
Issued by NWS Green Bay, WI

Home | Current Version | Previous Version | Text Only | Print | Product List | Glossary On
Versions: 1 2 3 4 5 6 7 8 9 10 11 12 13 14 15 16 17 18 19 20 21 22 23 24 25 26 27 28 29 30 31 32 33 34 35 36 37 38 39 40 41 42 43 44 45 46 47 48 49 50
000
ASUS43 KGRB 241810
RWRGRB

NORTH-CENTRAL AND NORTHEAST WISCONSIN REGIONAL WEATHER ROUNDUP
NATIONAL WEATHER SERVICE GREEN BAY WI
1200 PM CST WED DEC 24 2014

WIZ005-009-010>012-018-019-241900-
NORTH CENTRAL WISCONSIN

CITY           SKY/WX    TMP DP  RH WIND       PRES   REMARKS
IRONWOOD       CLOUDY    32  30  93 N6        29.60F
MANITOWISH WTR CLOUDY    30  30  98 N3        29.58F
ARBOR VITAE    CLOUDY    32  29  90 N7        29.57F
EAGLE RIVER    CLOUDY    31  30  95 N5        29.56F
LAND O LAKES   CLOUDY    32  29  90 N7        29.58F
RHINELANDER    CLOUDY    31  29  92 NW7       29.57F
PHILLIPS       CLOUDY    32  29  91 N7        29.60F
ANTIGO         CLOUDY    32  30  94 N10       29.55F
TOMAHAWK       CLOUDY    32  29  90 NW7       29.58F
MERRILL        CLOUDY    33  32  96 N8        29.57F
$$

WIZ013-073-241900-
NORTHEAST WISCONSIN

CITY           SKY/WX    TMP DP  RH WIND       PRES   REMARKS
IRON MOUNTAIN  CLOUDY    33  30  88 N8        29.54F FOG
MARINETTE      CLOUDY    36  34  93 N6        29.55F VSB 3/4
OCONTO         CLOUDY    34  34 100 CALM      29.56F
$$

WIZ017-030-035>037-045-241900-
CENTRAL WISCONSIN

CITY           SKY/WX    TMP DP  RH WIND       PRES   REMARKS
MEDFORD        CLOUDY    32  29  88 N9        29.57F
WAUSAU         CLOUDY    34  31  88 N5        29.55F
MOSINEE        CLOUDY    34  34 100 N8        29.58F
MARSHFIELD     CLOUDY    35  31  85 N7        29.57F
WISC RAPIDS    CLOUDY    34  31  88 N8        29.58F
STEVENS POINT  CLOUDY    32  32  99 N6        29.57F
WAUPACA        LGT RAIN  35  34  95 NW6       29.57F
SHAWANO        CLOUDY    36  34  95 N5        29.57F FOG
CLINTONVILLE   CLOUDY    34  32  93 N3        29.57F FOG
$$

WIZ038-039-048-051-241900-
FOX VALLEY

CITY           SKY/WX    TMP DP  RH WIND       PRES   REMARKS
NWS GREEN BAY  LGT RAIN  35  34  96 N3        29.56F VSB 1
APPLETON       FOG       34  34 100 N6        29.56F VSB 1/2
OSHKOSH        FOG       35  33  92 N7        29.55F VSB 1/4
FOND DU LAC    FOG       36  34  92 N7        29.55F VSB 1/4
$$

WIZ022-050-052-241900-
EAST CENTRAL WISCONSIN

CITY           SKY/WX    TMP DP  RH WIND       PRES   REMARKS
STURGEON BAY   CLOUDY    36  32  87 N7        29.57F VSB 1
MANITOWOC      CLOUDY    38  37  97 NW6       29.54F FOG
SHEBOYGAN      CLOUDY    38  36  92 NW5       29.53F
$$

LMZ563-521-522-541>543-241900-
LAKESHORE

STATION/POSITION TIME  TEMP    WIND        PRES    VSBY  WAVE
                       AIR SEA DIR/SP/G                  HT/PER
                 (UTC) (F)     (DEG/KT/KT) (MB)    (MI)  (FT/S)
SHEBOYGAN LKSHOR 1800   38 36  350/  5/  6 1000.4F
KEWAUNEE LKSHORE 1800   37     320/  1/  3 1000.2F
ALGOMA MARINA    1800             CALM       N/A
NORTHPORT PIER   1800   35     340/  5/  7 1001.0F
SISTER BAY LKSHO 1800           10/  1/  3   N/A
CHAMBERS ISLAND  1800   35     330/  6/  7 1001.4F
MENOMINEE LKSHOR 1800   34     320/  7/  9 1001.9F
$$



USA.gov is the U.S. government's official web portal to all federal, state and local government web resources and services.